| time (UTC) | temp F | wind direction | speed knots | gust knots | rain 1hr in | rain 24hr in | rain mn in | humidity % | barometer mb |
| 20260506014039 | 68 | 315 | 7.0 | 12.2 | 0.00 | 0.00 | 0.00 | 73 | 1025.5 |
| 20260506013539 | 68 | 265 | 6.1 | 12.2 | 0.00 | 0.00 | 0.00 | 74 | 1025.5 |
| 20260506013053 | 68 | 271 | 4.3 | 11.3 | 0.00 | 0.00 | 0.00 | 73 | 1025.6 |
| 20260506012541 | 68 | 306 | 5.2 | 13.9 | 0.00 | 0.00 | 0.00 | 74 | 1025.8 |
| 20260506012041 | 68 | 261 | 7.0 | 13.9 | 0.00 | 0.00 | 0.00 | 74 | 1025.9 |
| 20260506011546 | 68 | 274 | 6.1 | 12.2 | 0.00 | 0.00 | 0.00 | 74 | 1026.0 |
| 20260506011039 | 68 | 260 | 7.0 | 12.2 | 0.00 | 0.00 | 0.00 | 73 | 1025.9 |
| 20260506010539 | 68 | 273 | 6.1 | 12.2 | 0.00 | 0.00 | 0.00 | 73 | 1026.0 |
| 20260506010049 | 68 | 234 | 6.1 | 13.0 | 0.00 | 0.00 | 0.00 | 73 | 1026.0 |
| 20260506005538 | 67 | 307 | 7.8 | 13.9 | 0.00 | 0.00 | 0.00 | 72 | 1026.1 |
| 20260506005038 | 67 | 249 | 5.2 | 13.9 | 0.00 | 0.00 | 0.00 | 74 | 1026.1 |
| 20260506004547 | 67 | 254 | 5.2 | 11.3 | 0.00 | 0.00 | 0.00 | 72 | 1026.2 |
| 20260506004038 | 67 | 219 | 6.1 | 14.8 | 0.00 | 0.00 | 0.00 | 74 | 1026.3 |
| 20260506003539 | 66 | 244 | 9.6 | 14.8 | 0.00 | 0.00 | 0.00 | 73 | 1026.3 |
| 20260506003049 | 67 | 261 | 7.0 | 13.0 | 0.00 | 0.00 | 0.00 | 73 | 1026.3 |
| 20260506002539 | 68 | 244 | 8.7 | 13.0 | 0.00 | 0.00 | 0.00 | 72 | 1026.3 |
| 20260506002039 | 67 | 259 | 5.2 | 11.3 | 0.00 | 0.00 | 0.00 | 73 | 1026.5 |
| 20260506001555 | 67 | 285 | 4.3 | 11.3 | 0.00 | 0.00 | 0.00 | 73 | 1026.5 |
| 20260506001036 | 67 | 264 | 7.8 | 12.2 | 0.00 | 0.00 | 0.00 | 73 | 1026.5 |
| 20260506000538 | 67 | 225 | 6.1 | 12.2 | 0.00 | 0.00 | 0.00 | 72 | 1026.6 |
| 20260506000042 | 67 | 273 | 6.1 | 12.2 | 0.00 | 0.00 | 0.00 | 73 | 1026.6 |
| 20260505235539 | 67 | 253 | 5.2 | 10.4 | 0.00 | 0.00 | 0.00 | 73 | 1026.7 |
| 20260505235040 | 67 | 288 | 7.0 | 10.4 | 0.00 | 0.00 | 0.00 | 74 | 1026.8 |
| 20260505234548 | 67 | 280 | 4.3 | 9.6 | 0.00 | 0.00 | 0.00 | 76 | 1026.7 |
| 20260505234039 | 67 | 275 | 4.3 | 10.4 | 0.00 | 0.00 | 0.00 | 75 | 1026.7 |
| 20260505233541 | 66 | 273 | 7.0 | 10.4 | 0.00 | 0.00 | 0.00 | 75 | 1026.8 |
| 20260505233053 | 66 | 322 | 4.3 | 10.4 | 0.00 | 0.00 | 0.00 | 74 | 1026.7 |
| 20260505232539 | 66 | 259 | 5.2 | 11.3 | 0.00 | 0.00 | 0.00 | 75 | 1026.7 |
| 20260505232039 | 66 | 263 | 5.2 | 11.3 | 0.00 | 0.00 | 0.00 | 76 | 1026.7 |
| 20260505231548 | 66 | 306 | 6.1 | 9.6 | 0.00 | 0.00 | 0.00 | 75 | 1026.7 |
| 20260505231039 | 66 | 315 | 3.5 | 8.7 | 0.00 | 0.00 | 0.00 | 77 | 1026.8 |
| 20260505230538 | 65 | 302 | 4.3 | 8.7 | 0.00 | 0.00 | 0.00 | 76 | 1026.8 |
| 20260505230112 | 65 | 270 | 2.6 | 6.1 | 0.00 | 0.00 | 0.00 | 76 | 1026.8 |
| 20260505225540 | 65 | 278 | 2.6 | 6.1 | 0.00 | 0.00 | 0.00 | 77 | 1026.9 |
| 20260505225038 | 65 | 242 | 0.9 | 6.1 | 0.00 | 0.00 | 0.00 | 78 | 1027.0 |
| 20260505224550 | 65 | 58 | 2.6 | 6.1 | 0.00 | 0.00 | 0.00 | 79 | 1027.0 |
| 20260505224038 | 65 | 283 | 2.6 | 7.0 | 0.00 | 0.00 | 0.00 | 78 | 1027.2 |
| 20260505223539 | 64 | 285 | 2.6 | 7.0 | 0.00 | 0.00 | 0.00 | 79 | 1027.1 |
| 20260505223054 | 64 | 236 | 2.6 | 7.0 | 0.00 | 0.00 | 0.00 | 80 | 1027.1 |
| 20260505222538 | 63 | 252 | 3.5 | 7.0 | 0.00 | 0.00 | 0.00 | 81 | 1027.1 |
| 20260505222043 | 63 | 284 | 2.6 | 7.0 | 0.00 | 0.00 | 0.00 | 81 | 1027.3 |
| 20260505221555 | 63 | 298 | 2.6 | 7.0 | 0.00 | 0.00 | 0.00 | 82 | 1027.4 |
| 20260505221035 | 62 | 237 | 3.5 | 6.1 | 0.00 | 0.00 | 0.00 | 83 | 1027.3 |
| 20260505220539 | 62 | 277 | 3.5 | 6.1 | 0.00 | 0.00 | 0.00 | 84 | 1027.4 |
| 20260505220053 | 61 | 292 | 1.7 | 4.3 | 0.00 | 0.00 | 0.00 | 85 | 1027.5 |
| 20260505215539 | 61 | 231 | 1.7 | 4.3 | 0.00 | 0.00 | 0.00 | 86 | 1027.4 |
| 20260505215036 | 61 | 221 | 0.9 | 3.5 | 0.00 | 0.00 | 0.00 | 86 | 1027.4 |
| 20260505214550 | 60 | 239 | 1.7 | 3.5 | 0.00 | 0.00 | 0.00 | 86 | 1027.4 |
| 20260505214038 | 60 | 236 | 1.7 | 2.6 | 0.00 | 0.00 | 0.00 | 87 | 1027.5 |
| 20260505213539 | 59 | 250 | 0.9 | 1.7 | 0.00 | 0.00 | 0.00 | 87 | 1027.5 |
| 20260505213049 | 59 | 0 | 0.0 | 1.7 | 0.00 | 0.00 | 0.00 | 87 | 1027.5 |
| 20260505212540 | 59 | 0 | 0.0 | 0.9 | 0.00 | 0.00 | 0.00 | 87 | 1027.7 |
| 20260505212039 | 59 | 246 | 0.0 | 2.6 | 0.00 | 0.00 | 0.00 | 87 | 1027.7 |
| 20260505211549 | 58 | 0 | 0.0 | 2.6 | 0.00 | 0.00 | 0.00 | 87 | 1027.6 |
| 20260505211039 | 58 | 246 | 0.9 | 2.6 | 0.00 | 0.00 | 0.00 | 87 | 1027.7 |
| 20260505210538 | 58 | 248 | 0.9 | 2.6 | 0.00 | 0.00 | 0.00 | 87 | 1027.7 |
| 20260505210045 | 58 | 267 | 0.9 | 5.2 | 0.00 | 0.00 | 0.00 | 87 | 1027.7 |
| 20260505205539 | 58 | 259 | 1.7 | 5.2 | 0.00 | 0.00 | 0.00 | 87 | 1027.8 |
| 20260505205035 | 58 | 275 | 1.7 | 3.5 | 0.00 | 0.00 | 0.00 | 88 | 1027.7 |
| 20260505204542 | 57 | 269 | 0.9 | 2.6 | 0.00 | 0.00 | 0.00 | 89 | 1027.8 |
| 20260505204039 | 57 | 252 | 0.0 | 2.6 | 0.00 | 0.00 | 0.00 | 91 | 1027.6 |
| 20260505203538 | 56 | 0 | 0.0 | 2.6 | 0.00 | 0.00 | 0.00 | 93 | 1027.6 |
| 20260505203055 | 55 | 277 | 0.0 | 2.6 | 0.00 | 0.00 | 0.00 | 93 | 1027.7 |
| 20260505202539 | 55 | 0 | 0.0 | 0.0 | 0.00 | 0.00 | 0.00 | 94 | 1027.7 |
| 20260505202039 | 54 | 0 | 0.0 | 0.0 | 0.00 | 0.00 | 0.00 | 94 | 1027.7 |
| 20260505201551 | 53 | 0 | 0.0 | 0.0 | 0.00 | 0.00 | 0.00 | 94 | 1027.6 |
| 20260505201042 | 53 | 0 | 0.0 | 0.0 | 0.00 | 0.00 | 0.00 | 94 | 1027.6 |
| 20260505200539 | 53 | 0 | 0.0 | 0.0 | 0.00 | 0.00 | 0.00 | 94 | 1027.6 |
| 20260505200108 | 52 | 0 | 0.0 | 0.0 | 0.00 | 0.00 | 0.00 | 94 | 1027.6 |
| 20260505195544 | 52 | 0 | 0.0 | 0.0 | 0.00 | 0.00 | 0.00 | 94 | 1027.6 |
| 20260505195042 | 52 | 0 | 0.0 | 0.0 | 0.00 | 0.00 | 0.00 | 93 | 1027.7 |
| 20260505194549 | 52 | 0 | 0.0 | 0.0 | 0.00 | 0.00 | 0.00 | 93 | 1027.5 |
| 20260505194039 | 52 | 0 | 0.0 | 0.0 | 0.00 | 0.00 | 0.00 | 93 | 1027.5 |
| 20260505193539 | 51 | 0 | 0.0 | 0.0 | 0.00 | 0.00 | 0.00 | 93 | 1027.6 |
| 20260505193058 | 51 | 0 | 0.0 | 0.0 | 0.00 | 0.00 | 0.00 | 93 | 1027.5 |
| 20260505192538 | 51 | 0 | 0.0 | 0.0 | 0.00 | 0.00 | 0.00 | 93 | 1027.4 |
| 20260505192039 | 51 | 0 | 0.0 | 0.0 | 0.00 | 0.00 | 0.00 | 93 | 1027.5 |
| 20260505191557 | 51 | 0 | 0.0 | 0.0 | 0.00 | 0.00 | 0.00 | 93 | 1027.5 |
| 20260505191041 | 51 | 0 | 0.0 | 0.0 | 0.00 | 0.00 | 0.00 | 93 | 1027.4 |
| 20260505190543 | 51 | 0 | 0.0 | 0.0 | 0.00 | 0.00 | 0.00 | 93 | 1027.4 |
| 20260505190050 | 51 | 0 | 0.0 | 0.0 | 0.00 | 0.00 | 0.00 | 93 | 1027.4 |
| 20260505185539 | 51 | 0 | 0.0 | 0.0 | 0.00 | 0.00 | 0.00 | 93 | 1027.4 |
| 20260505185039 | 51 | 0 | 0.0 | 0.0 | 0.00 | 0.00 | 0.00 | 93 | 1027.5 |
| 20260505184548 | 51 | 0 | 0.0 | 0.0 | 0.00 | 0.00 | 0.00 | 93 | 1027.5 |
| 20260505184040 | 51 | 0 | 0.0 | 0.0 | 0.00 | 0.00 | 0.00 | 93 | 1027.4 |
| 20260505183541 | 51 | 0 | 0.0 | 0.0 | 0.00 | 0.00 | 0.00 | 93 | 1027.5 |
| 20260505183048 | 51 | 0 | 0.0 | 0.0 | 0.00 | 0.00 | 0.00 | 93 | 1027.5 |
| 20260505182540 | 51 | 197 | 0.0 | 0.0 | 0.00 | 0.00 | 0.00 | 93 | 1027.4 |
| 20260505182039 | 50 | 0 | 0.0 | 0.0 | 0.00 | 0.00 | 0.00 | 93 | 1027.5 |
| 20260505181554 | 50 | 0 | 0.0 | 1.7 | 0.00 | 0.00 | 0.00 | 92 | 1027.6 |
| 20260505181038 | 51 | 0 | 0.9 | 1.7 | 0.00 | 0.00 | 0.00 | 92 | 1027.5 |
| 20260505180538 | 51 | 195 | 0.0 | 0.9 | 0.00 | 0.00 | 0.00 | 93 | 1027.5 |
| 20260505180047 | 51 | 0 | 0.0 | 0.0 | 0.00 | 0.00 | 0.00 | 93 | 1027.5 |
| 20260505175539 | 51 | 0 | 0.0 | 0.0 | 0.00 | 0.00 | 0.00 | 93 | 1027.5 |
| 20260505175039 | 51 | 0 | 0.0 | 0.0 | 0.00 | 0.00 | 0.00 | 93 | 1027.6 |
| 20260505174557 | 51 | 0 | 0.0 | 0.0 | 0.00 | 0.00 | 0.00 | 93 | 1027.6 |
| 20260505174040 | 51 | 0 | 0.0 | 0.0 | 0.00 | 0.00 | 0.00 | 93 | 1027.7 |
| 20260505173538 | 52 | 0 | 0.0 | 0.9 | 0.00 | 0.00 | 0.00 | 93 | 1027.7 |
| 20260505173054 | 52 | 0 | 0.0 | 1.7 | 0.00 | 0.00 | 0.00 | 93 | 1027.7 |
| 20260505172538 | 52 | 0 | 0.0 | 1.7 | 0.00 | 0.00 | 0.00 | 93 | 1027.7 |
| 20260505172039 | 52 | 0 | 0.0 | 0.9 | 0.00 | 0.00 | 0.00 | 93 | 1027.7 |
| 20260505171546 | 52 | 0 | 0.0 | 0.9 | 0.00 | 0.00 | 0.00 | 93 | 1027.8 |
| 20260505171039 | 52 | 196 | 0.0 | 0.9 | 0.00 | 0.00 | 0.00 | 93 | 1027.8 |
| 20260505170538 | 52 | 0 | 0.0 | 0.0 | 0.00 | 0.00 | 0.00 | 93 | 1027.8 |
| 20260505170051 | 52 | 0 | 0.0 | 0.9 | 0.00 | 0.00 | 0.00 | 93 | 1027.8 |
| 20260505165543 | 52 | 0 | 0.0 | 0.9 | 0.00 | 0.00 | 0.00 | 93 | 1027.9 |
| 20260505165038 | 52 | 0 | 0.0 | 0.0 | 0.00 | 0.00 | 0.00 | 93 | 1028.0 |
| 20260505164551 | 52 | 0 | 0.0 | 0.9 | 0.00 | 0.00 | 0.00 | 93 | 1028.0 |
| 20260505164039 | 52 | 0 | 0.0 | 0.9 | 0.00 | 0.00 | 0.00 | 94 | 1027.9 |
| 20260505163538 | 52 | 195 | 0.0 | 0.9 | 0.00 | 0.00 | 0.00 | 94 | 1028.0 |
| 20260505163048 | 52 | 195 | 0.0 | 0.9 | 0.00 | 0.00 | 0.00 | 94 | 1027.9 |
| 20260505162538 | 51 | 195 | 0.0 | 0.9 | 0.00 | 0.00 | 0.00 | 94 | 1028.0 |
| 20260505162039 | 51 | 177 | 0.0 | 0.9 | 0.00 | 0.00 | 0.00 | 94 | 1028.0 |
| 20260505161548 | 51 | 0 | 0.0 | 1.7 | 0.00 | 0.00 | 0.00 | 94 | 1028.1 |
| 20260505161039 | 51 | 0 | 0.0 | 1.7 | 0.00 | 0.00 | 0.00 | 94 | 1028.0 |
| 20260505160539 | 51 | 178 | 0.0 | 1.7 | 0.00 | 0.00 | 0.00 | 94 | 1028.0 |
| 20260505153051 | 51 | 177 | 0.0 | 0.9 | 0.00 | 0.00 | 0.00 | 93 | 1028.2 |
| 20260505152538 | 51 | 177 | 0.0 | 0.9 | 0.00 | 0.00 | 0.00 | 93 | 1028.1 |
| 20260505152039 | 51 | 176 | 0.0 | 0.9 | 0.00 | 0.00 | 0.00 | 93 | 1028.1 |
| 20260505151547 | 51 | 0 | 0.0 | 0.9 | 0.00 | 0.00 | 0.00 | 93 | 1028.2 |
| 20260505151039 | 51 | 0 | 0.0 | 0.0 | 0.00 | 0.00 | 0.00 | 93 | 1028.3 |
| 20260505150540 | 51 | 0 | 0.0 | 0.0 | 0.00 | 0.00 | 0.00 | 93 | 1028.3 |
| 20260505140539 | 51 | 0 | 0.0 | 0.9 | 0.00 | 0.00 | 0.00 | 93 | 1028.9 |
| 20260505130112 | 50 | 90 | 0.0 | 1.7 | 0.00 | 0.00 | 0.00 | 94 | 1029.3 |
| 20260505124556 | 50 | 73 | 0.9 | 3.5 | 0.00 | 0.00 | 0.00 | 94 | 1029.5 |
| 20260505124041 | 50 | 65 | 0.0 | 1.7 | 0.00 | 0.00 | 0.00 | 95 | 1029.6 |
| 20260505123540 | 49 | 105 | 0.9 | 1.7 | 0.00 | 0.00 | 0.00 | 95 | 1029.4 |
| 20260505123105 | 49 | 0 | 0.0 | 0.9 | 0.00 | 0.00 | 0.00 | 95 | 1029.5 |
| 20260505122539 | 49 | 105 | 0.0 | 1.7 | 0.00 | 0.00 | 0.00 | 95 | 1029.6 |
| 20260505122039 | 49 | 105 | 0.9 | 1.7 | 0.00 | 0.00 | 0.00 | 95 | 1029.8 |
| 20260505121549 | 49 | 101 | 0.0 | 1.7 | 0.00 | 0.00 | 0.00 | 95 | 1029.8 |
| 20260505121039 | 48 | 101 | 0.0 | 1.7 | 0.00 | 0.00 | 0.00 | 95 | 1029.8 |
| 20260505120539 | 48 | 101 | 0.9 | 1.7 | 0.00 | 0.00 | 0.00 | 95 | 1029.8 |
| 20260505120049 | 48 | 101 | 0.0 | 0.9 | 0.00 | 0.00 | 0.00 | 95 | 1029.9 |
| 20260505115539 | 48 | 101 | 0.0 | 0.9 | 0.00 | 0.00 | 0.00 | 95 | 1029.8 |
| 20260505115040 | 48 | 0 | 0.0 | 0.9 | 0.00 | 0.00 | 0.00 | 95 | 1029.8 |
| 20260505114551 | 48 | 0 | 0.0 | 0.9 | 0.00 | 0.00 | 0.00 | 95 | 1029.8 |
| 20260505114041 | 48 | 101 | 0.0 | 0.9 | 0.00 | 0.00 | 0.00 | 95 | 1029.9 |
| 20260505113538 | 47 | 0 | 0.0 | 1.7 | 0.00 | 0.00 | 0.00 | 95 | 1029.9 |
| 20260505113100 | 47 | 0 | 0.0 | 1.7 | 0.00 | 0.00 | 0.00 | 95 | 1030.0 |
| 20260505112540 | 47 | 101 | 0.9 | 1.7 | 0.00 | 0.00 | 0.00 | 95 | 1030.0 |
| 20260505112041 | 47 | 0 | 0.0 | 1.7 | 0.00 | 0.00 | 0.00 | 95 | 1030.1 |
| 20260505111549 | 47 | 101 | 0.9 | 1.7 | 0.00 | 0.00 | 0.00 | 95 | 1030.0 |
| 20260505111040 | 46 | 0 | 0.0 | 0.9 | 0.00 | 0.00 | 0.00 | 95 | 1030.0 |
| 20260505110540 | 46 | 100 | 0.0 | 0.9 | 0.00 | 0.00 | 0.00 | 95 | 1030.1 |
| 20260505102039 | 44 | 0 | 0.0 | 0.9 | 0.00 | 0.00 | 0.00 | 94 | 1030.7 |
| 20260505101552 | 44 | 0 | 0.0 | 0.9 | 0.00 | 0.00 | 0.00 | 94 | 1030.7 |
| 20260505101037 | 44 | 86 | 0.0 | 0.9 | 0.00 | 0.00 | 0.00 | 93 | 1030.6 |
| 20260505100540 | 44 | 0 | 0.0 | 0.0 | 0.00 | 0.00 | 0.00 | 95 | 1030.8 |
| 20260505100051 | 44 | 0 | 0.0 | 0.0 | 0.00 | 0.00 | 0.00 | 93 | 1030.7 |
| 20260505095540 | 44 | 0 | 0.0 | 0.0 | 0.00 | 0.00 | 0.00 | 93 | 1030.7 |
| 20260505095038 | 45 | 0 | 0.0 | 0.0 | 0.00 | 0.00 | 0.00 | 94 | 1030.7 |
| 20260505094601 | 45 | 0 | 0.0 | 0.0 | 0.00 | 0.00 | 0.00 | 94 | 1030.7 |
| 20260505094036 | 45 | 0 | 0.0 | 0.0 | 0.00 | 0.00 | 0.00 | 94 | 1030.6 |
| 20260505093540 | 44 | 0 | 0.0 | 0.9 | 0.00 | 0.00 | 0.00 | 94 | 1030.6 |
| 20260505093054 | 44 | 0 | 0.0 | 0.9 | 0.00 | 0.00 | 0.00 | 94 | 1030.6 |
| 20260505092539 | 44 | 86 | 0.0 | 1.7 | 0.00 | 0.00 | 0.00 | 93 | 1030.7 |
| 20260505092037 | 44 | 0 | 0.0 | 1.7 | 0.00 | 0.00 | 0.00 | 93 | 1030.7 |
| 20260505091544 | 44 | 86 | 0.9 | 1.7 | 0.00 | 0.00 | 0.00 | 92 | 1030.6 |
| 20260505091037 | 45 | 0 | 0.0 | 1.7 | 0.00 | 0.00 | 0.00 | 93 | 1030.6 |
| 20260505090539 | 45 | 0 | 0.0 | 1.7 | 0.00 | 0.00 | 0.00 | 93 | 1030.4 |
| 20260505090046 | 45 | 80 | 0.9 | 1.7 | 0.00 | 0.00 | 0.00 | 93 | 1030.3 |
| 20260505085540 | 45 | 59 | 0.9 | 1.7 | 0.00 | 0.00 | 0.00 | 93 | 1030.2 |
| 20260505085040 | 45 | 56 | 0.9 | 2.6 | 0.00 | 0.00 | 0.00 | 93 | 1030.3 |
| 20260505084556 | 45 | 56 | 1.7 | 2.6 | 0.00 | 0.00 | 0.00 | 92 | 1030.3 |
| 20260505084040 | 45 | 56 | 1.7 | 1.7 | 0.00 | 0.00 | 0.00 | 93 | 1030.3 |
| 20260505083539 | 46 | 56 | 1.7 | 1.7 | 0.00 | 0.00 | 0.00 | 92 | 1030.3 |
| 20260505083059 | 46 | 56 | 1.7 | 2.6 | 0.00 | 0.00 | 0.00 | 93 | 1030.4 |
| 20260505082539 | 46 | 56 | 1.7 | 2.6 | 0.00 | 0.00 | 0.00 | 93 | 1030.4 |
| 20260505082040 | 45 | 57 | 1.7 | 2.6 | 0.00 | 0.00 | 0.00 | 92 | 1030.5 |
| 20260505081558 | 45 | 56 | 2.6 | 2.6 | 0.00 | 0.00 | 0.00 | 92 | 1030.6 |
| 20260505081037 | 45 | 60 | 1.7 | 2.6 | 0.00 | 0.00 | 0.00 | 92 | 1030.6 |
| 20260505080539 | 45 | 60 | 1.7 | 2.6 | 0.00 | 0.00 | 0.00 | 91 | 1030.5 |
| 20260505080052 | 45 | 60 | 1.7 | 2.6 | 0.00 | 0.00 | 0.00 | 90 | 1030.7 |
| 20260505075538 | 46 | 55 | 0.9 | 3.5 | 0.00 | 0.00 | 0.00 | 89 | 1030.6 |
| 20260505075036 | 46 | 56 | 2.6 | 3.5 | 0.00 | 0.00 | 0.00 | 88 | 1030.6 |
| 20260505074546 | 47 | 59 | 0.0 | 1.7 | 0.00 | 0.00 | 0.00 | 88 | 1030.6 |
| 20260505074042 | 48 | 59 | 0.9 | 1.7 | 0.00 | 0.00 | 0.00 | 87 | 1030.7 |
| 20260505073609 | 49 | 59 | 0.0 | 1.7 | 0.00 | 0.00 | 0.00 | 86 | 1030.7 |
| 20260505073051 | 50 | 0 | 0.0 | 0.0 | 0.00 | 0.00 | 0.00 | 89 | 1030.8 |
| 20260505072540 | 50 | 0 | 0.0 | 0.0 | 0.00 | 0.00 | 0.00 | 89 | 1030.8 |
| 20260505072040 | 50 | 0 | 0.0 | 0.0 | 0.00 | 0.00 | 0.00 | 89 | 1030.8 |
| 20260505071551 | 50 | 0 | 0.0 | 0.0 | 0.00 | 0.00 | 0.00 | 89 | 1030.8 |
| 20260505071040 | 50 | 0 | 0.0 | 0.0 | 0.00 | 0.00 | 0.00 | 89 | 1030.7 |
| 20260505070540 | 50 | 0 | 0.0 | 0.0 | 0.00 | 0.00 | 0.00 | 89 | 1030.7 |
| 20260505070052 | 50 | 0 | 0.0 | 0.0 | 0.00 | 0.00 | 0.00 | 89 | 1030.8 |
| 20260505065540 | 50 | 0 | 0.0 | 0.0 | 0.00 | 0.00 | 0.00 | 89 | 1030.8 |
| 20260505065038 | 50 | 0 | 0.0 | 0.0 | 0.00 | 0.00 | 0.00 | 88 | 1030.8 |
| 20260505064549 | 50 | 0 | 0.0 | 0.0 | 0.00 | 0.00 | 0.00 | 88 | 1030.9 |
| 20260505064038 | 50 | 0 | 0.0 | 0.0 | 0.00 | 0.00 | 0.00 | 87 | 1030.8 |
| 20260505063540 | 51 | 0 | 0.0 | 0.0 | 0.00 | 0.00 | 0.00 | 86 | 1030.8 |
| 20260505063049 | 51 | 0 | 0.0 | 0.9 | 0.00 | 0.00 | 0.00 | 87 | 1030.8 |
| 20260505062538 | 52 | 0 | 0.0 | 0.9 | 0.00 | 0.00 | 0.00 | 86 | 1030.8 |
| 20260505062038 | 52 | 225 | 0.0 | 0.9 | 0.00 | 0.00 | 0.00 | 86 | 1030.8 |
| 20260505061550 | 52 | 225 | 0.0 | 0.9 | 0.00 | 0.00 | 0.00 | 86 | 1030.8 |
| 20260505061040 | 52 | 224 | 0.0 | 0.9 | 0.00 | 0.00 | 0.00 | 85 | 1030.8 |
| 20260505060540 | 53 | 225 | 0.0 | 0.9 | 0.00 | 0.00 | 0.00 | 86 | 1030.8 |
| 20260505060050 | 53 | 225 | 0.0 | 0.0 | 0.00 | 0.00 | 0.00 | 85 | 1030.7 |
| 20260505055540 | 53 | 0 | 0.0 | 0.9 | 0.00 | 0.00 | 0.00 | 85 | 1030.7 |
| 20260505055040 | 53 | 0 | 0.0 | 0.9 | 0.00 | 0.00 | 0.00 | 85 | 1030.7 |
| 20260505054557 | 53 | 225 | 0.0 | 0.9 | 0.00 | 0.00 | 0.00 | 85 | 1030.7 |
| 20260505054037 | 54 | 225 | 0.0 | 0.9 | 0.00 | 0.00 | 0.00 | 84 | 1030.7 |
| 20260505053537 | 54 | 224 | 0.0 | 0.9 | 0.00 | 0.00 | 0.00 | 84 | 1030.7 |
| 20260505053049 | 54 | 225 | 0.9 | 0.9 | 0.00 | 0.00 | 0.00 | 83 | 1030.8 |
| 20260505052536 | 54 | 225 | 0.9 | 0.9 | 0.00 | 0.00 | 0.00 | 83 | 1030.8 |
| 20260505052039 | 55 | 225 | 0.9 | 1.7 | 0.00 | 0.00 | 0.00 | 82 | 1030.8 |
| 20260505051552 | 55 | 225 | 0.9 | 1.7 | 0.00 | 0.00 | 0.00 | 81 | 1030.8 |
| 20260505051036 | 56 | 225 | 0.9 | 1.7 | 0.00 | 0.00 | 0.00 | 80 | 1030.8 |
| 20260505050542 | 56 | 225 | 0.0 | 1.7 | 0.00 | 0.00 | 0.00 | 79 | 1030.9 |
| 20260505041550 | 60 | 227 | 2.6 | 3.5 | 0.00 | 0.00 | 0.00 | 72 | 1030.9 |
| 20260505041039 | 60 | 231 | 2.6 | 4.3 | 0.00 | 0.00 | 0.00 | 72 | 1030.8 |
| 20260505040536 | 60 | 236 | 2.6 | 4.3 | 0.00 | 0.00 | 0.00 | 72 | 1030.9 |
| 20260505040054 | 60 | 238 | 2.6 | 4.3 | 0.00 | 0.00 | 0.00 | 71 | 1030.9 |
| 20260505035537 | 61 | 229 | 2.6 | 4.3 | 0.00 | 0.00 | 0.00 | 70 | 1030.9 |
| 20260505035039 | 61 | 229 | 2.6 | 4.3 | 0.00 | 0.00 | 0.00 | 71 | 1030.9 |
| 20260505034552 | 61 | 236 | 2.6 | 4.3 | 0.00 | 0.00 | 0.00 | 70 | 1031.0 |
| 20260505034040 | 61 | 236 | 2.6 | 5.2 | 0.00 | 0.00 | 0.00 | 69 | 1031.1 |
| 20260505033540 | 61 | 259 | 3.5 | 7.0 | 0.00 | 0.00 | 0.00 | 69 | 1031.0 |
| 20260505033049 | 61 | 294 | 2.6 | 7.8 | 0.00 | 0.00 | 0.00 | 69 | 1031.1 |
| 20260505032542 | 61 | 250 | 3.5 | 7.8 | 0.00 | 0.00 | 0.00 | 69 | 1031.0 |
| 20260505032039 | 61 | 234 | 2.6 | 9.6 | 0.00 | 0.00 | 0.00 | 70 | 1031.0 |
| 20260505031557 | 61 | 309 | 4.3 | 9.6 | 0.00 | 0.00 | 0.00 | 69 | 1031.0 |
| 20260505031042 | 61 | 235 | 3.5 | 7.0 | 0.00 | 0.00 | 0.00 | 68 | 1031.1 |
| 20260505030540 | 61 | 239 | 3.5 | 7.8 | 0.00 | 0.00 | 0.00 | 70 | 1031.0 |
| 20260505030054 | 61 | 253 | 3.5 | 7.8 | 0.00 | 0.00 | 0.00 | 68 | 1031.0 |
| 20260505025537 | 61 | 261 | 3.5 | 7.8 | 0.00 | 0.00 | 0.00 | 69 | 1031.0 |
| 20260505025040 | 61 | 241 | 3.5 | 7.8 | 0.00 | 0.00 | 0.00 | 68 | 1030.9 |
| 20260505024550 | 61 | 294 | 1.7 | 7.0 | 0.00 | 0.00 | 0.00 | 71 | 1030.9 |
| 20260505024039 | 61 | 240 | 3.5 | 7.0 | 0.00 | 0.00 | 0.00 | 70 | 1030.9 |
| 20260505023536 | 61 | 229 | 1.7 | 7.0 | 0.00 | 0.00 | 0.00 | 68 | 1031.0 |
| 20260505023047 | 61 | 298 | 4.3 | 7.0 | 0.00 | 0.00 | 0.00 | 68 | 1031.0 |
| 20260505022540 | 61 | 265 | 2.6 | 7.8 | 0.00 | 0.00 | 0.00 | 68 | 1031.1 |
| 20260505022040 | 61 | 273 | 3.5 | 8.7 | 0.00 | 0.00 | 0.00 | 68 | 1031.1 |
| 20260505021549 | 61 | 250 | 4.3 | 8.7 | 0.00 | 0.00 | 0.00 | 67 | 1031.1 |
| 20260505021040 | 61 | 228 | 3.5 | 7.8 | 0.00 | 0.00 | 0.00 | 69 | 1031.1 |
| 20260505020540 | 61 | 284 | 2.6 | 8.7 | 0.00 | 0.00 | 0.00 | 67 | 1031.1 |
| 20260505020042 | 61 | 240 | 4.3 | 8.7 | 0.00 | 0.00 | 0.00 | 70 | 1031.0 |
| 20260505015540 | 61 | 234 | 3.5 | 7.0 | 0.00 | 0.00 | 0.00 | 70 | 1031.1 |
| 20260505015040 | 61 | 243 | 4.3 | 8.7 | 0.00 | 0.00 | 0.00 | 70 | 1031.2 |
| 20260505014602 | 61 | 237 | 1.7 | 8.7 | 0.00 | 0.00 | 0.00 | 69 | 1031.2 |